User: anonymous   Login
Location: Unspecified
(0.0000°N, 0.0000°E)
Time: 19:58:05
(UTC+00:00)
Language:

ISIS 1 - Orbit

View from above orbital plane
View from above orbital plane
View from above satellite
View from above satellite

Ground track
Ground track

The orbit data is extracted from the following two-line orbital elements,

1  3669U 69009A   17144.79537190 +.00000054 +00000-0 +21548-4 0  9999
2  3669 088.4319 150.8836 1713320 083.4605 295.7712 11.29439987985999
Epoch (UTC): 24 May 2017 19:05:20
Eccentricity: 0.1713320
inclination: 88.4319°
perigee height: 575 km
apogee height: 3451 km
right ascension of ascending node: 150.8836°
argument of perigee: 83.4605°
revolutions per day: 11.29439987
mean anomaly at epoch: 295.7712°
orbit number at epoch: 98599

The dashed part of the orbit path shows where the satellite is in the earth's shadow,  

DLR